Probability
0 0 0 0 0 0 0 0 0 0 0 0 0 0 0 0 0 0 0 0 0 0 0 0 0 0 0 0 0 0 0 0 0 0 0 0 0 0 0 0 0 0 0
0 0 0 0 0 0 0 0 0 0 0 0 0 0 0 0 0 0 0 0 0 0 0 0 0 0 0 0 0 0 0 0 0 0 0 0 0 0 0 0 0 0 0
0 0 0 0 0 0 0 0 0 0 0 0 0 0 0 0 0 0 0 0 0 0 0 0 0 0 0 0 0 0 0 0 0 0 0 0 0 0 0 0 0 0 0
0 0 0 0 0 0 0 0 0 0 0 0 0 0 0 0 0 0 0 0 0 0 0 0 0 0 0 0 0 0 0 0 0 0 0 0 0 0 0 0 0 0 0
0 0 0 0 0 0 0 0 0 0 0 0 0 0 0 0 0 0 0 0 0 0 0 0 0 0 0 0 0 0 0 0 0 0 0 0 0 0 0 0 0 0 0
0 0 0 0 0 0 0 0 0 0 0 0 0 0 0 0 0 0 0 0 0 0 0 0 0 0 0 0 0 0 0 0 0 0 0 0 0 0 0 0 0 0 0
0 0 0 0 0 0 0 0 0 0 0 0 0 0 0 0 0 0 0 0 0 0 0 0 0 0 0 0 0 0 0 0 0 0 0 0 0 0 0 0 0 0 0
0 0 0 0 0 0 0 0 0 0 0 0 0 0 0 0 0 0 0 0 0 0 0 0 0 0 0 0 0 0 0 0 0 0 0 0 0 0 0 0 0 0 0
0 0 0 0 0 0 0 0 0 0 0 0 0 0 0 0 0 0 0 0 0 0 0 0 0 0 0 0 0 0 0 0 0 0 0 0 0 0 0 0 0 0 0
0 0 0 0 0 0 0 0 0 0 0 0 0 0 0 0 0 0 0 0 0 0 0 0 0 0 0 0 0 0 0 0 0 0 0 0 0 0 0 0 0 0 0
0 0 0 0 0 0 0 0 0 0 0 0 0 0 0 0 0 0 0 0 0 0 0 0 0 0 0 0 0 0 0 0 0 0 0 0 0 0 0 0 0 0 0
0 0 0 0 0 0 0 0 0 0 0 0 0 0 0 0 0 0 0 0 0 0 0 0 0 0 0 0 0 0 0 0 0 0 0 0 0 0 0 0 0 0 0
0 0 0 0 0 0 0 0 0 0 0 0 0 0 0 0 0 0 0 0 0 0 0 0 0 0 0 0 0 0 0 0 0 0 0 0 0 0 0 0 0 0 0
0 0 0 0 0 0 0 0 0 0 0 0 0 0 0 0 0 0 0 0 0 0 0 0 0 0 0 0 0 0 0 0 0 0 0 0 0 0 0 0 0 0 0
0 0 0 0 0 0 0 0 0 0 0 0 0 0 0 0 0 0 0 0 0 0 0 0 0 0 0 0 0 0 0 0 0 0 0 0 0 0 0 0 0 0 0
0 0 0 0 0 0 0 0 0 0 0 0 0 0 0 0 0 0 0 0 0 0 0 0 0 0 0 0 0 0 0 0 0 0 0 0 0 0 0 0 0 0 0
0 0 0 0 0 0 0 0 0 0 0 0 0 0 0 0 0 0 0 0 0 0 0 0 0 0 0 0 0 0 0 0 0 0 0 0 0 0 0 0 0 0 0
0 0 0 0 0 0 0 0 0 0 0 0 0 0 0 0 0 0 0 0 0 0 0 0 0 0 0 0 0 0 0 0 0 0 0 0 0 0 0 0 0 0 0
0 0 0 0 0 0 0 0 0 0 0 0 0 0 0 0 0 0 0 0 0 0 0 0 0 0 0 0 0 0 0 0 0 0 0 0 0 0 0 0 0 0 0
0 0 0 0 0 0 0 0 0 0 0 0 0 0 0 0 0 0 0 0 0 0 0 0 0 0 0 0 0 0 0 0 0 0 0 0 0 0 0 0 0 0 0
0 0 0 0 0 0 0 0 0 0 0 0 0 0 0 0 0 0 0 0 0 0 0 0 0 0 0 0 0 0 0 0 0 0 0 0 0 0 0 0 0 0 0
0 0 0 0 0 0 0 0 0 0 0 0 0 0 0 0 0 0 0 0 0 0 0 0 0 0 0 0 0 0 0 0 0 0 0 0 0 0 0 0 0 0 0
0 0 0 0 0 0 0 0 0 0 0 0 0 0 0 0 0 0 0 0 0 0 0 0 0 0 0 0 0 0 0 0 0 0 0 0 0 0 0 0 0 0 0
0 0 0 0 0 0 0 0 0 0 0 0 0 0 0 0 0 0 0 0 0 0 0 0 0 0 0 0 0 0 0 0 0 0 0 0 0 0 0 0 0 0 0
0 0 0 0 0 0 0 0 0 0 0 0 0 0 0 0 0 0 0 0 0 0 0 0 0 0 0 0 0 0 0 0 0 0 0 0 0 0 0 0 0 0 0
0 0 0 0 0 0 0 0 0 0 0 0 0 0 0 0 0 0 0 0 0 0 0 0 0 0 0 0 0 0 0 0 0 0 0 0 0 0 0 0 0 0 0
Wind_Speed
3 3 3 3 2 3 3 3 3 3 4 5 5 6 6 6 6 6 6 6 7 7 6 7 7 7 6 5 5 5 6 6 11 10 6 6 7 8 8 7 7 8 9
3 2 2 1 1 1 2 3 3 4 4 4 5 5 6 6 6 6 8 8 8 9 9 9 9 7 8 6 6 7 7 7 9 14 10 7 8 8 9 10 8 7 8
4 3 2 1 1 0 1 2 3 3 4 4 4 5 6 7 7 7 8 9 9 10 10 11 11 10 11 8 8 9 8 9 8 11 12 8 7 6 8 8 8 8 8
4 4 3 3 2 0 1 2 2 3 4 4 5 5 6 8 9 9 10 10 11 11 11 12 12 11 13 11 11 11 9 10 9 11 11 9 8 7 7 7 8 6 8
5 5 4 2 2 2 2 2 2 3 4 5 6 6 7 7 7 11 12 12 13 15 14 13 13 16 20 17 14 11 10 10 10 11 12 10 9 7 8 5 10 7 9
6 5 4 3 3 2 1 2 3 4 4 5 6 7 8 8 16 20 17 14 15 16 17 16 15 16 19 24 26 26 22 16 12 12 14 15 13 8 7 8 9 9 9
6 5 4 4 3 2 1 3 4 5 5 6 6 7 9 11 19 21 22 17 15 14 15 15 14 14 16 16 20 24 23 25 26 19 19 19 16 10 10 12 11 13 14
6 6 5 4 3 1 1 2 4 4 5 6 7 8 10 12 20 22 23 16 14 14 14 15 16 16 16 18 17 17 17 17 19 16 16 18 17 14 13 16 15 15 15
7 7 6 4 3 1 2 2 3 3 5 6 7 7 9 13 19 22 22 12 11 14 14 15 16 17 22 26 20 16 17 16 20 25 27 27 30 31 25 15 14 14 17
7 7 6 4 3 2 2 2 2 4 6 7 8 8 10 11 18 22 22 9 10 12 12 14 18 22 25 27 19 15 17 16 15 16 19 22 20 20 26 19 15 15 15
6 6 5 3 2 2 2 2 3 5 6 6 9 9 9 11 16 21 22 12 11 12 12 12 13 24 28 29 26 18 22 23 16 15 14 13 13 12 13 14 15 15 17
7 6 4 2 1 1 2 3 4 4 6 7 8 9 8 9 13 17 23 23 22 15 13 13 15 27 30 32 26 25 31 27 13 11 11 12 12 12 12 14 17 18 19
6 5 3 3 3 3 3 4 4 4 5 6 6 8 8 8 11 20 22 25 27 18 14 23 28 31 30 22 24 29 23 13 11 12 13 13 13 13 13 12 14 17 20
6 5 4 3 3 3 3 4 4 4 5 6 6 8 9 9 8 9 10 12 17 16 13 16 23 25 23 21 17 15 11 10 11 13 14 13 12 12 12 12 13 13 15
5 4 4 4 4 4 4 5 6 7 8 8 8 8 9 9 11 22 18 12 12 13 14 8 8 10 10 10 10 10 10 10 11 12 12 13 13 13 13 12 12 13 15
5 5 4 3 3 3 4 5 10 12 16 17 17 14 9 15 21 22 23 24 24 22 12 7 9 9 10 11 11 12 11 11 11 12 12 12 13 13 13 12 12 13 14
6 5 3 3 3 4 4 4 6 8 11 13 12 13 15 17 19 20 20 20 18 16 6 7 8 9 10 11 11 12 13 13 12 12 12 12 12 12 12 13 12 12 12
5 5 5 4 4 4 4 4 5 6 7 6 8 14 14 15 17 17 17 14 9 8 4 6 8 9 10 11 11 12 13 13 12 12 12 11 11 11 12 12 11 12 10
6 4 4 4 4 4 4 5 5 6 6 7 7 8 10 14 14 13 12 4 6 8 7 7 8 9 10 10 11 12 12 13 13 13 11 11 10 10 11 11 11 12 11
5 8 6 4 4 4 4 5 5 5 5 6 7 6 6 5 4 6 5 4 5 6 7 8 8 9 10 10 11 11 12 12 13 12 12 11 10 10 11 12 10 9 8
4 5 6 5 5 5 5 5 5 5 5 6 6 8 12 5 4 6 6 6 6 7 8 9 9 10 9 10 10 12 13 11 11 12 12 11 11 10 9 9 8 7 5
4 4 4 4 4 5 5 5 5 5 6 7 6 7 10 5 4 5 6 6 6 6 7 8 9 9 9 10 11 12 12 12 11 11 12 12 11 10 9 7 6 4 1
4 4 4 4 4 5 5 5 5 5 6 6 6 6 5 5 5 5 6 6 7 7 7 7 8 9 8 9 10 11 12 12 11 11 12 11 10 9 8 7 6 4 3
4 5 5 5 4 5 5 5 5 6 6 5 5 5 5 5 5 7 7 6 7 7 7 7 8 11 14 12 10 11 12 13 10 9 11 10 9 8 7 6 5 5 5
4 5 5 5 5 5 5 5 5 5 5 6 5 5 5 5 6 6 6 6 7 8 10 9 7 8 12 16 15 13 17 18 11 9 8 7 8 8 7 6 5 6 6
5 5 5 5 5 5 5 6 6 6 6 6 5 5 6 6 6 6 6 6 6 8 9 8 9 11 14 12 14 17 18 17 12 11 8 6 7 7 7 6 7 6 7
Wind_Direction
139 126 112 98 82 65 49 28 12 3 360 358 352 348 345 343 341 335 325 318 313 307 301 296 292 289 285 282 279 274 267 255 270 281 275 276 271 270 275 266 254 252 253
181 166 149 120 74 39 13 358 354 347 345 340 336 333 330 328 322 317 311 310 302 301 300 294 290 288 281 278 274 271 269 260 264 279 285 283 270 266 267 269 264 256 248
197 194 196 202 219 306 338 347 348 341 336 336 335 328 323 319 314 305 297 295 290 288 288 287 288 286 285 280 272 273 271 271 264 272 279 278 276 265 269 265 257 259 254
201 202 209 211 203 198 19 9 353 345 340 340 333 326 323 321 316 310 310 304 297 292 289 285 284 281 282 282 279 274 273 273 270 271 275 274 272 268 262 267 268 253 256
198 203 205 181 138 100 61 19 352 351 345 335 331 328 327 320 315 318 315 309 305 303 300 296 293 292 289 286 283 280 275 274 274 275 277 275 269 263 260 254 265 269 260
194 196 171 146 128 103 53 2 346 345 340 335 332 327 323 320 317 318 316 311 306 304 304 304 301 296 294 294 292 289 285 281 279 276 278 275 274 263 264 262 267 269 270
187 177 161 150 139 111 14 348 343 337 335 331 324 321 313 309 314 316 314 310 303 301 300 300 299 298 299 295 293 291 288 285 282 280 278 277 281 280 276 271 264 261 261
180 173 163 155 150 133 347 333 330 327 327 319 313 306 302 303 311 313 312 308 301 297 296 296 295 296 294 292 289 285 284 283 281 279 275 278 279 279 272 273 274 273 270
185 179 167 160 160 186 302 312 313 314 309 302 294 298 299 301 307 309 308 303 297 296 294 291 290 289 289 291 290 287 286 286 287 283 280 280 281 282 279 273 263 258 261
191 170 155 155 169 223 267 288 288 297 294 298 299 296 292 290 298 305 309 300 294 291 289 285 284 285 287 289 287 284 282 282 279 276 278 279 281 282 282 274 269 264 262
151 143 151 158 186 230 258 271 287 292 295 293 293 290 284 284 293 302 305 300 292 292 291 290 287 289 289 288 285 279 277 280 275 271 271 271 271 270 271 268 262 259 259
145 152 164 178 220 225 252 273 275 280 289 287 288 290 284 285 290 297 303 304 303 298 295 292 289 291 290 289 287 281 283 286 281 277 275 274 272 270 267 266 265 261 256
152 170 186 212 232 233 243 263 269 262 269 282 285 290 293 289 290 300 303 303 301 299 292 294 297 300 300 298 293 293 291 284 278 275 274 273 271 271 270 269 266 265 262
168 186 199 218 236 235 240 246 246 249 257 266 273 280 286 289 291 293 290 296 301 302 299 302 309 310 308 305 303 300 293 284 278 275 275 275 276 274 269 267 268 263 263
176 193 208 216 228 246 249 241 249 237 236 250 256 263 285 298 301 309 314 312 311 313 326 333 327 319 315 312 309 305 301 294 285 277 274 274 272 272 270 266 263 259 258
188 202 208 216 224 237 256 275 274 274 276 277 282 289 296 301 311 317 321 325 332 336 343 329 319 316 314 314 312 309 304 299 295 291 284 277 274 272 274 271 264 260 256
198 202 204 219 228 238 249 265 288 300 293 293 294 304 307 313 320 326 332 339 343 347 342 314 313 314 312 311 309 306 305 302 297 290 285 281 276 274 274 274 269 264 256
205 215 217 220 228 234 242 251 260 278 296 297 299 307 314 323 326 334 344 351 336 338 313 308 311 311 310 309 309 308 306 306 303 297 289 283 279 275 275 274 271 268 260
208 217 218 222 226 232 240 249 253 257 267 283 299 305 317 319 327 338 353 345 312 316 315 309 306 307 308 307 307 306 306 306 307 306 299 293 286 281 277 277 274 270 265
218 228 222 218 224 230 236 245 251 254 261 270 279 290 302 303 324 328 329 305 301 302 306 307 308 307 307 307 308 309 311 312 313 315 312 304 296 289 284 282 278 276 269
219 228 230 226 226 228 231 238 245 248 255 263 268 278 290 305 308 303 304 302 301 304 307 307 307 308 308 309 311 311 312 314 316 317 318 314 309 302 295 289 284 279 270
220 221 219 225 231 233 235 236 239 247 253 262 273 285 301 304 289 289 290 291 290 287 290 297 300 300 304 310 313 314 315 316 319 321 320 318 317 315 312 309 308 309 315
221 228 231 231 231 238 242 239 238 243 250 254 265 276 282 276 275 279 283 287 291 292 292 291 295 298 304 309 309 310 313 317 320 319 320 319 321 323 325 329 340 0 38
224 230 237 238 234 235 240 243 241 245 248 254 257 262 269 270 273 279 281 285 290 291 289 290 290 293 302 311 311 310 311 319 325 323 321 323 327 331 337 347 3 26 52
231 234 238 239 238 238 242 246 247 248 251 255 258 264 267 271 275 276 278 283 289 292 295 296 291 297 304 308 308 309 315 325 338 340 333 335 341 347 352 1 14 31 48
233 235 238 238 238 237 239 247 251 251 253 257 258 260 267 272 275 277 280 284 291 296 298 298 296 300 304 305 307 314 321 333 357 358 350 348 357 4 6 14 23 34 43